TimeCDT,TemperatureF,Dew PointF,Humidity,Sea Level PressureIn,VisibilityMPH,Wind Direction,Wind SpeedMPH,Gust SpeedMPH,PrecipitationIn,Events,Conditions,WindDirDegrees,DateUTC
12:58 AM,65.8,37.4,35,30.04,10.0,South,17.3,25.3,N/A,,Clear,190,2013-03-15 05:58:00
1:58 AM,64.0,36.9,37,30.04,10.0,SSW,8.1,17.3,N/A,,Clear,210,2013-03-15 06:58:00
2:58 AM,62.1,36.7,39,30.03,10.0,SSW,8.1,-,N/A,,Clear,200,2013-03-15 07:58:00
3:58 AM,61.2,37.0,41,30.00,10.0,SSW,15.0,-,N/A,,Clear,200,2013-03-15 08:58:00
4:58 AM,60.8,37.2,42,29.99,10.0,SSW,10.4,-,N/A,,Clear,200,2013-03-15 09:58:00
5:58 AM,59.7,37.6,44,29.98,10.0,South,12.7,-,N/A,,Clear,190,2013-03-15 10:58:00
6:58 AM,57.6,37.8,48,29.99,10.0,South,12.7,-,N/A,,Clear,190,2013-03-15 11:58:00
7:58 AM,57.0,39.2,51,30.01,10.0,SSW,13.8,-,N/A,,Clear,200,2013-03-15 12:58:00
8:58 AM,60.6,42.6,52,30.01,10.0,SSW,13.8,-,N/A,,Clear,210,2013-03-15 13:58:00
9:58 AM,64.9,45.1,49,30.01,10.0,South,21.9,27.6,N/A,,Clear,190,2013-03-15 14:58:00
10:58 AM,68.5,46.2,45,30.00,10.0,South,20.7,28.8,N/A,,Clear,180,2013-03-15 15:58:00
11:58 AM,73.0,47.1,40,29.98,10.0,South,18.4,25.3,N/A,,Clear,180,2013-03-15 16:58:00
12:58 PM,76.3,48.4,37,29.95,10.0,South,16.1,24.2,N/A,,Clear,190,2013-03-15 17:58:00
1:58 PM,80.1,45.3,29,29.90,10.0,SSW,18.4,24.2,N/A,,Clear,210,2013-03-15 18:58:00
2:58 PM,83.5,42.1,23,29.84,10.0,South,20.7,24.2,N/A,,Clear,180,2013-03-15 19:58:00
3:58 PM,84.7,40.1,21,29.82,10.0,South,17.3,26.5,N/A,,Clear,190,2013-03-15 20:58:00
4:58 PM,85.1,38.5,19,29.79,10.0,South,20.7,33.4,N/A,,Clear,180,2013-03-15 21:58:00
5:58 PM,84.6,39.9,21,29.78,10.0,South,20.7,29.9,N/A,,Clear,180,2013-03-15 22:58:00
6:58 PM,82.9,37.4,20,29.77,10.0,South,20.7,24.2,N/A,,Clear,180,2013-03-15 23:58:00
7:58 PM,77.5,35.6,22,29.77,10.0,South,16.1,-,N/A,,Clear,170,2013-03-16 00:58:00
8:58 PM,75.6,35.8,24,29.77,10.0,South,17.3,-,N/A,,Clear,180,2013-03-16 01:58:00
9:58 PM,73.9,40.1,29,29.76,10.0,South,23.0,-,N/A,,Clear,180,2013-03-16 02:58:00
10:58 PM,71.6,41.0,33,29.76,10.0,South,25.3,33.4,N/A,,Clear,180,2013-03-16 03:58:00
11:58 PM,70.0,43.2,38,29.74,10.0,South,29.9,39.1,N/A,,Clear,180,2013-03-16 04:58:00